Orr, MN

12:09 AM CDT on October 19, 2017 (GMT -0500)
Orr Regional

Weather History for KORB - May, 2013

Change the Weather History Date:

Friday, May 3, 2013

  Actual Average Record
Temperature  
Mean Temperature 32 °F -  
Max Temperature 42 °F 58 °F 75 °F (2000)
Min Temperature 21 °F 33 °F 15 °F (2002)
Degree Days  
Heating Degree Days 34    
Moisture  
Dew Point 21 °F    
Average Humidity 64    
Maximum Humidity 93    
Minimum Humidity 36    
Precipitation  
Precipitation 0.00 in - - ()
Sea Level Pressure  
Sea Level Pressure 30.33 in    
Wind  
Wind Speed 1 mph (NNE)    
Max Wind Speed 7 mph    
Max Gust Speed -    
Visibility 10 miles    
Events Rain    
Averages and records for this station are not official NWS values.
T = Trace of Precipitation, MM = Missing Value Source: NWS Daily Summary

Daily Weather History Graph

Daily Weather History Graph

Search for Another Location

Airport or City:

Trip Planner

Search our weather history database for the weather conditions in past years. The results will help you decide how hot, cold, wet, or windy it might be!

Date:

Astronomy

May. 03, 2013 Rise Set
Actual Time 5:49 AM CDT 8:27 PM CDT
Civil Twilight 5:14 AM CDT 9:03 PM CDT
Nautical Twilight 4:30 AM CDT 9:47 PM CDT
Astronomical Twilight 3:38 AM CDT 10:40 PM CDT
Moon 2:43 AM CDT (5/3) 1:56 PM CDT (5/3)
Length of Visible Light 15h 48m
Length of Day
14h 38m
Last Quarter, 37% of the Moon is Illuminated
May 3
Last Quarter
May 9
New
May 17
First Quarter
May 24
Full
May 31
Last Quarter

Hourly Weather History & Observations

Time (CDT) Temp. Windchill Dew Point Humidity Pressure Visibility Wind Dir Wind Speed Gust Speed Precip Events Conditions
12:13 AM 26.6 °F - 19.4 °F 74% 30.47 in 10.0 mi Calm Calm - N/A   Clear
12:33 AM 24.8 °F - 19.4 °F 80% 30.47 in 10.0 mi Calm Calm - N/A   Clear
12:53 AM 24.8 °F - 19.4 °F 80% 30.46 in 10.0 mi Calm Calm - N/A   Clear
1:13 AM 24.8 °F - 19.4 °F 80% 30.44 in 10.0 mi Calm Calm - N/A   Clear
1:33 AM 24.8 °F - 19.4 °F 80% 30.44 in 10.0 mi Calm Calm - N/A   Clear
1:53 AM 24.8 °F - 19.4 °F 80% 30.44 in 10.0 mi Calm Calm - N/A   Clear
2:13 AM 23.0 °F - 19.4 °F 86% 30.44 in 10.0 mi Calm Calm - N/A   Clear
2:33 AM 23.0 °F - 19.4 °F 86% 30.43 in 10.0 mi Calm Calm - N/A   Clear
2:53 AM 21.2 °F - 19.4 °F 93% 30.42 in 10.0 mi Calm Calm - N/A   Clear
3:13 AM 21.2 °F - 19.4 °F 93% 30.42 in 10.0 mi Calm Calm - N/A   Clear
3:33 AM 21.2 °F - 19.4 °F 93% 30.42 in 10.0 mi Calm Calm - N/A   Clear
3:53 AM 21.2 °F - 19.4 °F 93% 30.41 in 10.0 mi Calm Calm - N/A   Clear
4:13 AM 21.2 °F - 19.4 °F 93% 30.41 in 10.0 mi Calm Calm - N/A   Clear
4:33 AM 21.2 °F - 19.4 °F 93% 30.41 in 10.0 mi Calm Calm - N/A   Clear
4:53 AM 21.2 °F - 19.4 °F 93% 30.41 in 10.0 mi Calm Calm - N/A   Clear
5:13 AM 21.2 °F - 19.4 °F 93% 30.40 in 10.0 mi Calm Calm - N/A   Clear
5:33 AM 21.2 °F - 17.6 °F 86% 30.41 in 10.0 mi Calm Calm - N/A   Clear
5:53 AM 21.2 °F - 17.6 °F 86% 30.41 in 10.0 mi Calm Calm - N/A   Clear
6:13 AM 23.0 °F - 19.4 °F 86% 30.41 in 10.0 mi Calm Calm - N/A   Clear
6:33 AM 24.8 °F 20.5 °F 19.4 °F 80% 30.40 in 10.0 mi NNW 3.5 mph - N/A   Clear
6:53 AM 26.6 °F - 19.4 °F 74% 30.40 in 10.0 mi Calm Calm - N/A   Clear
7:13 AM 26.6 °F - 19.4 °F 74% 30.40 in 10.0 mi Calm Calm - N/A   Clear
7:33 AM 28.4 °F - 19.4 °F 69% 30.39 in 10.0 mi Calm Calm - N/A   Clear
7:53 AM 30.2 °F - 19.4 °F 64% 30.39 in 10.0 mi Calm Calm - N/A   Clear
8:13 AM 30.2 °F 24.3 °F 19.4 °F 64% 30.38 in 10.0 mi North 5.8 mph - N/A   Clear
8:33 AM 30.2 °F 25.4 °F 17.6 °F 60% 30.38 in 10.0 mi NE 4.6 mph - N/A   Clear
8:53 AM 33.8 °F 30.8 °F 17.6 °F 52% 30.37 in 10.0 mi NNW 3.5 mph - N/A   Clear
9:14 AM 33.8 °F 30.8 °F 15.8 °F 48% 30.37 in 10.0 mi NNW 3.5 mph - N/A   Clear
9:34 AM 35.6 °F 29.9 °F 15.8 °F 44% 30.36 in 10.0 mi NNE 6.9 mph - N/A   Clear
9:53 AM 35.6 °F - 15.8 °F 44% 30.35 in 10.0 mi Calm Calm - N/A   Clear
10:13 AM 35.6 °F 31.7 °F 17.6 °F 48% 30.34 in 10.0 mi NNW 4.6 mph - N/A   Clear
10:33 AM 37.4 °F 32.8 °F 17.6 °F 45% 30.33 in 10.0 mi North 5.8 mph - N/A   Clear
10:53 AM 37.4 °F 34.9 °F 17.6 °F 45% 30.33 in 10.0 mi NNE 3.5 mph - N/A   Clear
11:13 AM 39.2 °F 35.0 °F 17.6 °F 42% 30.32 in 10.0 mi NE 5.8 mph - N/A   Scattered Clouds
11:33 AM 37.4 °F 32.8 °F 17.6 °F 45% 30.32 in 10.0 mi NNE 5.8 mph - N/A   Scattered Clouds
11:53 AM 39.2 °F 37.0 °F 17.6 °F 42% 30.32 in 10.0 mi NNE 3.5 mph - N/A   Scattered Clouds
12:13 PM 39.2 °F 35.0 °F 17.6 °F 42% 30.32 in 10.0 mi NNE 5.8 mph - N/A   Scattered Clouds
12:33 PM 41.0 °F 36.4 °F 17.6 °F 39% 30.31 in 10.0 mi NE 6.9 mph - N/A   Scattered Clouds
12:54 PM 42.8 °F 40.1 °F 17.6 °F 36% 30.31 in 10.0 mi NNE 4.6 mph - N/A   Scattered Clouds
1:13 PM 42.8 °F 39.3 °F 17.6 °F 36% 30.30 in 10.0 mi NW 5.8 mph - N/A   Clear
1:33 PM 42.8 °F 39.3 °F 17.6 °F 36% 30.29 in 10.0 mi NNE 5.8 mph - N/A   Clear
1:53 PM 42.8 °F - 17.6 °F 36% 30.28 in 10.0 mi Calm Calm - N/A   Scattered Clouds
2:14 PM 42.8 °F 39.3 °F 19.4 °F 39% 30.27 in 10.0 mi NNE 5.8 mph - N/A   Mostly Cloudy
2:34 PM 42.8 °F - 19.4 °F 39% 30.27 in 10.0 mi Calm Calm - N/A   Mostly Cloudy
2:53 PM 42.8 °F - 19.4 °F 39% 30.26 in 10.0 mi Calm Calm - N/A   Overcast
3:13 PM 41.0 °F 38.0 °F 19.4 °F 42% 30.25 in 10.0 mi NNE 4.6 mph - N/A   Overcast
3:33 PM 41.0 °F - 19.4 °F 42% 30.25 in 10.0 mi Calm Calm - N/A   Overcast
3:53 PM 41.0 °F 39.0 °F 21.2 °F 45% 30.26 in 10.0 mi NNW 3.5 mph - N/A   Overcast
4:13 PM 42.8 °F 41.1 °F 21.2 °F 42% 30.25 in 10.0 mi NNE 3.5 mph - N/A   Mostly Cloudy
4:33 PM 41.0 °F - 21.2 °F 45% 30.24 in 10.0 mi Calm Calm - N/A   Mostly Cloudy
4:54 PM 41.0 °F - 21.2 °F 45% 30.24 in 10.0 mi Calm Calm - N/A   Mostly Cloudy
5:13 PM 41.0 °F - 21.2 °F 45% 30.24 in 10.0 mi Calm Calm - N/A   Mostly Cloudy
5:34 PM 41.0 °F - 21.2 °F 45% 30.24 in 10.0 mi Calm Calm - N/A   Mostly Cloudy
5:53 PM 41.0 °F - 21.2 °F 45% 30.24 in 10.0 mi Calm Calm - N/A   Overcast
6:13 PM 41.0 °F - 21.2 °F 45% 30.24 in 10.0 mi Calm Calm - N/A   Overcast
6:33 PM 41.0 °F - 21.2 °F 45% 30.24 in 10.0 mi Calm Calm - N/A   Overcast
6:53 PM 39.2 °F - 21.2 °F 49% 30.24 in 10.0 mi Calm Calm - N/A   Overcast
7:13 PM 39.2 °F - 21.2 °F 49% 30.24 in 10.0 mi Calm Calm - N/A   Overcast
7:34 PM 39.2 °F 37.0 °F 23.0 °F 52% 30.25 in 10.0 mi East 3.5 mph - N/A   Overcast
7:53 PM 39.2 °F 35.0 °F 24.8 °F 56% 30.25 in 10.0 mi ENE 5.8 mph - N/A   Overcast
8:14 PM 37.4 °F - 24.8 °F 60% 30.25 in 10.0 mi Calm Calm - N/A   Overcast
8:33 PM 37.4 °F 34.9 °F 26.6 °F 65% 30.26 in 10.0 mi East 3.5 mph - N/A   Overcast
8:53 PM 35.6 °F 32.8 °F 26.6 °F 70% 30.26 in 10.0 mi East 3.5 mph - N/A   Light Drizzle
9:13 PM 35.6 °F - 28.4 °F 75% 30.26 in 10.0 mi Calm Calm - N/A   Drizzle
9:33 PM 33.8 °F - 28.4 °F 81% 30.26 in 10.0 mi Calm Calm - N/A   Drizzle
9:53 PM 33.8 °F - 28.4 °F 81% 30.26 in 7.0 mi Calm Calm - N/A   Drizzle
10:13 PM 33.8 °F - 28.4 °F 81% 30.25 in 7.0 mi Calm Calm - N/A Rain Rain
10:33 PM 33.8 °F - 30.2 °F 87% 30.25 in 10.0 mi Calm Calm - N/A   Drizzle
10:53 PM 33.8 °F - 30.2 °F 87% 30.25 in 10.0 mi Calm Calm - N/A   Light Drizzle
11:13 PM 32.0 °F - 30.2 °F 93% 30.24 in 10.0 mi Calm Calm - N/A   Drizzle
11:33 PM 32.0 °F - 28.4 °F 87% 30.24 in 10.0 mi Calm Calm - N/A   Overcast
11:53 PM 32.0 °F - 28.4 °F 87% 30.24 in 10.0 mi Calm Calm - N/A   Overcast